Weather History for Rhinelander, WI

Change the Weather History Date:

Monday, June 10, 2013

  Actual Average Record
Temperature  
Mean Temperature 63 °F 61 °F  
Max Temperature 75 °F 73 °F 98 °F (1911)
Min Temperature 51 °F 49 °F 31 °F (1972)
Degree Days  
Heating Degree Days 2 5  
Month to date heating degree days 121 67  
Since 1 June heating degree days 121 67  
Since 1 July heating degree days 9132 8953  
Cooling Degree Days 0 1  
Month to date cooling degree days 0 10  
Year to date cooling degree days 14 22  
Since 1 June cooling degree days 0 10  
Growing Degree Days 13 (Base 50)    
Moisture  
Dew Point 55 °F    
Average Humidity 77    
Maximum Humidity 100    
Minimum Humidity 53    
Precipitation  
Precipitation 0.00 in 0.13 in 2.06 in (1931)
Month to date precipitation 1.00 1.27  
Year to date precipitation 14.33 10.95  
Snow  
Snow 0.00 in - 0.00 in ()
Month to date snowfall 0.0  
Since 1 June snowfall 0.0  
Since 1 July snowfall 83.8  
Snow Depth 0.00 in    
Sea Level Pressure  
Sea Level Pressure 29.86 in    
Wind  
Wind Speed 3 mph (SE)    
Max Wind Speed 9 mph    
Max Gust Speed 12 mph    
Visibility 8 miles    
Events      
T = Trace of Precipitation, MM = Missing Value Source: NWS Daily Summary

Daily Weather History Graph

Daily Weather History Graph

Search for Another Location

Airport:

Trip Planner

Search our weather history database for the weather conditions in past years. The results will help you decide how hot, cold, wet, or windy it might be!

Date:

Astronomy

Jun. 10, 2013 Rise Set
Actual Time 5:08 AM CDT 8:46 PM CDT
Civil Twilight 4:30 AM CDT 9:24 PM CDT
Nautical Twilight 3:40 AM CDT 10:15 PM CDT
Astronomical Twilight 2:32 AM CDT 11:23 PM CDT
Moon 7:01 AM CDT (6/10) 10:07 PM CDT (6/10)
Length of Visible Light 16h 53m
Length of Day
15h 38m
Waxing Crescent, 4% of the Moon is Illuminated
Jun 10
Waxing Crescent
Jun 16
First Quarter
Jun 23
Full
Jun 29
Last Quarter
Jul 8
New

Hourly Weather History & Observations

Time (CDT) Temp. Dew Point Humidity Pressure Visibility Wind Dir Wind Speed Gust Speed Precip Events Conditions
12:53 AM 55.9 °F 52.0 °F 87% 29.91 in 10.0 mi East 4.6 mph - N/A   Clear
1:53 AM 55.9 °F 53.1 °F 90% 29.89 in 10.0 mi East 5.8 mph - N/A   Mostly Cloudy
2:53 AM 55.0 °F 53.1 °F 93% 29.90 in 10.0 mi Calm Calm - N/A   Scattered Clouds
3:20 AM 51.8 °F 50.0 °F 94% 29.89 in 5.0 mi Calm Calm - N/A   Mostly Cloudy
3:50 AM 51.8 °F 51.8 °F 100% 29.88 in 5.0 mi Calm Calm - N/A   Scattered Clouds
3:53 AM 52.0 °F 51.1 °F 97% 29.88 in 5.0 mi Calm Calm - N/A   Partly Cloudy
4:53 AM 52.0 °F 51.1 °F 97% 29.88 in 6.0 mi ENE 3.5 mph - N/A   Clear
5:53 AM 53.1 °F 52.0 °F 96% 29.88 in 3.0 mi Calm Calm - N/A   Clear
6:08 AM 53.6 °F 51.8 °F 94% 29.88 in 2.5 mi Calm Calm - N/A   Clear
6:31 AM 55.4 °F 53.6 °F 94% 29.87 in 4.0 mi Calm Calm - N/A   Clear
6:53 AM 55.9 °F 53.1 °F 90% 29.88 in 6.0 mi East 5.8 mph - N/A   Clear
7:53 AM 60.1 °F 54.0 °F 80% 29.86 in 10.0 mi East 5.8 mph - N/A   Clear
8:53 AM 64.0 °F 55.0 °F 73% 29.86 in 10.0 mi Variable 3.5 mph - N/A   Clear
9:53 AM 66.9 °F 57.0 °F 70% 29.86 in 10.0 mi ENE 3.5 mph - N/A   Clear
10:53 AM 71.1 °F 57.0 °F 61% 29.85 in 10.0 mi Calm Calm - N/A   Clear
11:53 AM 72.0 °F 57.9 °F 61% 29.84 in 10.0 mi Calm Calm - N/A   Mostly Cloudy
12:53 PM 73.0 °F 57.0 °F 57% 29.84 in 10.0 mi South 3.5 mph - N/A   Overcast
1:53 PM 73.0 °F 55.9 °F 55% 29.82 in 10.0 mi South 4.6 mph - N/A   Overcast
2:53 PM 73.9 °F 55.9 °F 53% 29.82 in 10.0 mi Calm Calm - N/A   Overcast
3:53 PM 75.0 °F 57.0 °F 53% 29.83 in 10.0 mi SSW 6.9 mph - N/A   Mostly Cloudy
4:53 PM 73.0 °F 55.9 °F 55% 29.83 in 10.0 mi South 4.6 mph - N/A   Overcast
5:53 PM 73.0 °F 57.9 °F 59% 29.83 in 10.0 mi SSW 4.6 mph - N/A   Mostly Cloudy
6:53 PM 73.0 °F 57.9 °F 59% 29.83 in 10.0 mi South 5.8 mph - N/A   Mostly Cloudy
7:53 PM 69.1 °F 59.0 °F 70% 29.83 in 10.0 mi SSW 4.6 mph - N/A   Clear
8:53 PM 64.9 °F 59.0 °F 81% 29.83 in 8.0 mi West 3.5 mph - N/A   Mostly Cloudy
9:53 PM 62.1 °F 57.9 °F 86% 29.85 in 7.0 mi Calm Calm - N/A   Clear
10:53 PM 63.0 °F 60.1 °F 90% 29.86 in 7.0 mi NNE 3.5 mph - N/A   Clear
11:53 PM 59.0 °F 57.0 °F 93% 29.86 in 5.0 mi Calm Calm - N/A   Clear